QBITO

Last updated on Thu Apr 05 2018 00:15:04 GMT+0000 (Coordinated Universal Time)

1 42728U 98067MH 18094.75741705 .00021434 00000-0 20175-3 0 9993 2 42728 51.6399 10.4161 0001047 343.7194 16.3768 15.67045608 48829

Satellite not in orbit